Showing default

SPEKTR R, 37755

Orbit data source: Space-Track

SPEKTR R, 37755 is a Commonwealth of Independent States-origin payload satellite in HEO that was launched on Mon, 18 Jul 2011 UTC via a ZENIT-3SLBF launch vehicle from the Tyuratam Missile And Space Complex (TTMTR). Payloads include a variety of satellites, spacecraft, and rockets equipped with specific instruments for various scientific and technological missions. These include communications satellites like Starlink; space stations such as the ISS; scientific satellites like the Hubble; Earth observation satellites from companies like Planet Labs, Umbra, and HawkEye 360; GPS; miniature CubeSats for education and research; and military/defense satellites.

Loading next visibility...
SPEKTR R details
Identifier
37755, 2011-037A
Orbit
HEO
Last TLE update3 weeks ago
Origin
Flag of CISBABTS/FIAN (CIS)
ManufacturerLavochkin
MissionNon-operational Civil Astronomy
Bus & MotorNAVIGATOR, Unknown motor
Mass3,660 kg wet, ~3,160 kg dry
Launch date (UTC)
2011-07-18 (13 years ago)
Launch vehicle
ZENIT-3SLBF
Launch site
Tyuratam Missile And Space Complex (TTMTR)
Object type
Payload
Rocket body
Debris
Shape & HBRBox + 2 Pan + 1 Dish, 18 m
Radar Cross Section18.197 m², Large (>1 m²)

Expand to show TLE details & history

TLE from 3 weeks ago
0 SPEKTR R
1 37755U 11037A   24341.23690998 -.00002413  00000-0  00000-0 0  9990
2 37755  70.7941 339.4494 8439633 316.3190 356.9093  0.10318044  5306
Epoch: 2024-12-06T05:41Z
Definitive object data (Epoch: 2024-12-06T05:41:09.022Z)
Latitude-39.09968°
Longitude162.08559°
Altitude23,431.67 km
Speed4.967 km/s
True Right ascension21h 31m 31s
True Declination-39° 03' 34"
Sunlit
Object was in daylight at TLE epoch
Visualization TLE readout
Latitude71.05092°
Longitude-79.72153°
Altitude144,138.722 km
Speed1.795 km/s
Apparent Right ascension05h 02m 57s
Apparent Declination71° 17' 04"
Sunlit
Object is in daylight
Visualization observer readout
Local Sidereal Time09:35:16
Azimuth335.38° NNW
Elevation44.396°
Doppler factor1
Orbital elements
Apogee altitude347,691.209 km
Perigee altitude23,583.312 km
Semi-major axis192,015.397 km
Eccentricity0.8439633
Inclination70.7941°
RAAN339.4494°
Arg. of periapsis316.319°
True anomaly302.40792°
Mean anomaly356.9093°
Eccentric anomaly341.83117°
Mean motion0.0258 °/min
BSTARUnknown
Orbital period13956.08 mins
Loading maneuver chart data...
Loading historical data...
Loading historical data...
Loading historical data...
Loading historical data...
Loading historical data...
Loading historical data...
Loading historical data...

SPEKTR R Visibility forecast

Observer location: undefined°, undefined

Span
Click to sort rows by Start time (UTC) header in descending order
Start Az.
Max El. time (UTC)
Max El. Az.
Max El.
End time (UTC)
End Az.
1440 mins2024-12-26 10:14:06.954Z335.377° NNW2024-12-27 08:45:06.954Z357.567° N42.857°2024-12-27 10:14:06.954Z333.093° NNW
|